Muniz Freire, Brazil
Current Conditions -  °F | °C
As of 7:00 AM on Thursday 18 Dec 2014 (Local Time) from SBVT Reporting Station
Few Clouds Few Clouds  
Wind Chill: 73°   Ceiling: Unl
Heat Index: 73°   Visibility: 6mi
Dew Point: 68°   Wind: 8mph
Humidity: 83%   Direction: 20°NNE
Pressure: 29.88"   Gusts: NA
Location:  20.46°S, 41.41°W
Report Text: SBVT 180900Z 02007KT 9999 FEW023 23/20 Q1012
Loading
Personal Weather Stations






























Interactive Weather Map New forecast layout! Learn more

10-Day Weather Forecast

Advertisements
Track Severe Weather on mobile